Time,TemperatureF,DewpointF,PressureIn,WindDirection,WindDirectionDegrees,WindSpeedMPH,WindSpeedGustMPH,Humidity,HourlyPrecipIn,Conditions,Clouds,dailyrainin,SoftwareType,DateUTC
2013-03-30 00:00:00,35.1,15.9,30.19,ESE,110,0.0,0.0,45,0.00,,---,0.00,VWS V14.01,2013-03-30 04:00:00,
2013-03-30 00:05:00,34.9,15.7,30.19,ESE,110,0.0,0.0,45,0.00,,---,0.00,VWS V14.01,2013-03-30 04:05:00,
2013-03-30 00:10:00,34.9,15.7,30.19,ESE,110,0.0,0.0,45,0.00,,---,0.00,VWS V14.01,2013-03-30 04:10:00,
2013-03-30 00:15:00,34.5,15.9,30.19,ESE,110,0.0,0.0,46,0.00,,---,0.00,VWS V14.01,2013-03-30 04:15:00,
2013-03-30 00:20:00,34.5,16.4,30.19,ESE,110,0.0,0.0,47,0.00,,---,0.00,VWS V14.01,2013-03-30 04:20:00,
2013-03-30 00:26:00,34.5,16.4,30.19,ESE,110,0.0,0.0,47,0.00,,---,0.00,VWS V14.01,2013-03-30 04:26:00,
2013-03-30 00:31:00,34.3,16.7,30.19,WNW,295,7.2,8.1,48,0.00,,---,0.00,VWS V14.01,2013-03-30 04:31:00,
2013-03-30 00:36:00,34.5,17.3,30.19,WNW,284,0.0,0.0,49,0.00,,---,0.00,VWS V14.01,2013-03-30 04:36:00,
2013-03-30 00:41:00,35.1,17.8,30.19,WNW,285,0.0,0.0,49,0.00,,---,0.00,VWS V14.01,2013-03-30 04:41:00,
2013-03-30 00:46:00,35.2,17.5,30.19,WNW,284,0.0,0.0,48,0.00,,---,0.00,VWS V14.01,2013-03-30 04:46:00,
2013-03-30 00:51:00,35.4,17.7,30.19,WNW,284,0.0,0.0,48,0.00,,---,0.00,VWS V14.01,2013-03-30 04:51:00,
2013-03-30 00:56:00,35.2,17.5,30.19,WNW,284,0.0,0.0,48,0.00,,---,0.00,VWS V14.01,2013-03-30 04:56:00,
2013-03-30 01:01:00,35.2,17.5,30.19,WNW,284,0.0,0.0,48,0.00,,---,0.00,VWS V14.01,2013-03-30 05:01:00,
2013-03-30 01:06:00,35.1,17.4,30.19,WNW,284,0.0,0.0,48,0.00,,---,0.00,VWS V14.01,2013-03-30 05:06:00,
2013-03-30 01:11:00,34.9,17.2,30.19,WNW,284,0.0,0.0,48,0.00,,---,0.00,VWS V14.01,2013-03-30 05:11:00,
2013-03-30 01:17:00,34.5,16.9,30.19,NNW,344,0.0,5.4,48,0.00,,---,0.00,VWS V14.01,2013-03-30 05:17:00,
2013-03-30 01:22:00,34.3,16.7,30.19,NNW,342,0.0,0.0,48,0.00,,---,0.00,VWS V14.01,2013-03-30 05:22:00,
2013-03-30 01:27:00,34.3,16.7,30.19,NNW,337,0.0,5.4,48,0.00,,---,0.00,VWS V14.01,2013-03-30 05:27:00,
2013-03-30 01:32:00,34.2,17.0,30.19,NNW,339,0.0,0.0,49,0.00,,---,0.00,VWS V14.01,2013-03-30 05:32:00,
2013-03-30 01:37:00,34.2,17.0,30.19,NNW,339,0.0,0.0,49,0.00,,---,0.00,VWS V14.01,2013-03-30 05:37:00,
2013-03-30 01:42:00,34.0,16.8,30.19,NNW,339,0.0,0.0,49,0.00,,---,0.00,VWS V14.01,2013-03-30 05:42:00,
2013-03-30 01:47:00,34.0,16.8,30.19,NNW,339,0.0,0.0,49,0.00,,---,0.00,VWS V14.01,2013-03-30 05:47:00,
2013-03-30 01:52:00,33.8,16.7,30.19,NNW,339,0.0,0.0,49,0.00,,---,0.00,VWS V14.01,2013-03-30 05:52:00,
2013-03-30 01:57:00,33.6,16.5,30.19,NNW,339,0.0,0.0,49,0.00,,---,0.00,VWS V14.01,2013-03-30 05:57:00,
2013-03-30 02:03:00,33.4,16.4,30.19,NNW,339,0.0,0.0,49,0.00,,---,0.00,VWS V14.01,2013-03-30 06:03:00,
2013-03-30 02:08:00,33.3,16.2,30.19,NNW,339,0.0,0.0,49,0.00,,---,0.00,VWS V14.01,2013-03-30 06:08:00,
2013-03-30 02:13:00,33.1,16.0,30.19,NNW,339,0.0,0.0,49,0.00,,---,0.00,VWS V14.01,2013-03-30 06:13:00,
2013-03-30 02:18:00,33.1,16.0,30.19,NNW,339,0.0,0.0,49,0.00,,---,0.00,VWS V14.01,2013-03-30 06:18:00,
2013-03-30 02:23:00,33.1,16.5,30.19,NNW,339,0.0,0.0,50,0.00,,---,0.00,VWS V14.01,2013-03-30 06:23:00,
2013-03-30 02:28:00,33.1,16.5,30.19,NNW,339,0.0,0.0,50,0.00,,---,0.00,VWS V14.01,2013-03-30 06:28:00,
2013-03-30 02:33:00,32.9,16.3,30.19,NNW,339,0.0,0.0,50,0.00,,---,0.00,VWS V14.01,2013-03-30 06:33:00,
2013-03-30 02:38:00,32.9,16.3,30.19,NNW,339,0.0,0.0,50,0.00,,---,0.00,VWS V14.01,2013-03-30 06:38:00,
2013-03-30 02:43:00,32.7,16.1,30.19,NNW,339,0.0,0.0,50,0.00,,---,0.00,VWS V14.01,2013-03-30 06:43:00,
2013-03-30 02:48:00,32.5,16.0,30.19,NNW,339,0.0,0.0,50,0.00,,---,0.00,VWS V14.01,2013-03-30 06:48:00,
2013-03-30 02:53:00,32.4,15.8,30.19,NNW,339,0.0,0.0,50,0.00,,---,0.00,VWS V14.01,2013-03-30 06:53:00,
2013-03-30 02:58:00,32.0,15.5,30.19,NNW,339,0.0,0.0,50,0.00,,---,0.00,VWS V14.01,2013-03-30 06:58:00,
2013-03-30 03:03:00,31.8,15.3,30.19,NNW,339,0.0,0.0,50,0.00,,---,0.00,VWS V14.01,2013-03-30 07:03:00,
2013-03-30 03:09:00,31.8,15.8,30.19,NNW,339,0.0,0.0,51,0.00,,---,0.00,VWS V14.01,2013-03-30 07:09:00,
2013-03-30 03:14:00,31.6,15.6,30.19,NNW,339,0.0,0.0,51,0.00,,---,0.00,VWS V14.01,2013-03-30 07:14:00,
2013-03-30 03:19:00,31.6,15.6,30.19,NNW,339,0.0,0.0,51,0.00,,---,0.00,VWS V14.01,2013-03-30 07:19:00,
2013-03-30 03:24:00,31.3,15.3,30.19,NNW,339,0.0,0.0,51,0.00,,---,0.00,VWS V14.01,2013-03-30 07:24:00,
2013-03-30 03:29:00,31.1,15.5,30.19,NNW,339,0.0,0.0,52,0.00,,---,0.00,VWS V14.01,2013-03-30 07:29:00,
2013-03-30 03:34:00,30.9,15.4,30.19,NNW,339,0.0,0.0,52,0.00,,---,0.00,VWS V14.01,2013-03-30 07:34:00,
2013-03-30 03:39:00,30.6,15.5,30.19,NNW,339,0.0,0.0,53,0.00,,---,0.00,VWS V14.01,2013-03-30 07:39:00,
2013-03-30 03:44:00,30.2,15.6,30.19,NNW,339,0.0,0.0,54,0.00,,---,0.00,VWS V14.01,2013-03-30 07:44:00,
2013-03-30 03:49:00,30.0,15.4,30.19,NNW,339,0.0,0.0,54,0.00,,---,0.00,VWS V14.01,2013-03-30 07:49:00,
2013-03-30 03:54:00,29.8,15.2,30.19,NNW,339,0.0,0.0,54,0.00,,---,0.00,VWS V14.01,2013-03-30 07:54:00,
2013-03-30 03:59:00,29.7,15.5,30.19,NNW,339,0.0,0.0,55,0.00,,---,0.00,VWS V14.01,2013-03-30 07:59:00,
2013-03-30 04:05:00,29.5,15.3,30.19,NNW,339,0.0,0.0,55,0.00,,---,0.00,VWS V14.01,2013-03-30 08:05:00,
2013-03-30 04:10:00,29.3,15.1,30.19,NNW,339,0.0,0.0,55,0.00,,---,0.00,VWS V14.01,2013-03-30 08:10:00,
2013-03-30 04:15:00,29.1,15.0,30.19,NNW,339,0.0,0.0,55,0.00,,---,0.00,VWS V14.01,2013-03-30 08:15:00,
2013-03-30 04:20:00,29.1,15.0,30.19,NNW,339,0.0,0.0,55,0.00,,---,0.00,VWS V14.01,2013-03-30 08:20:00,
2013-03-30 04:25:00,29.1,15.4,30.16,NNW,339,0.0,0.0,56,0.00,,---,0.00,VWS V14.01,2013-03-30 08:25:00,
2013-03-30 04:30:00,28.9,15.2,30.16,NNW,339,0.0,0.0,56,0.00,,---,0.00,VWS V14.01,2013-03-30 08:30:00,
2013-03-30 04:35:00,29.1,15.8,30.16,NNW,339,0.0,0.0,57,0.00,,---,0.00,VWS V14.01,2013-03-30 08:35:00,
2013-03-30 04:40:00,29.1,15.8,30.16,NNW,338,0.0,0.0,57,0.00,,---,0.00,VWS V14.01,2013-03-30 08:40:00,
2013-03-30 04:45:00,29.1,16.2,30.16,NNW,339,0.0,0.0,58,0.00,,---,0.00,VWS V14.01,2013-03-30 08:45:00,
2013-03-30 04:50:00,29.3,16.4,30.16,NNW,339,0.0,0.0,58,0.00,,---,0.00,VWS V14.01,2013-03-30 08:50:00,
2013-03-30 04:55:00,29.3,16.4,30.16,NNW,339,0.0,0.0,58,0.00,,---,0.00,VWS V14.01,2013-03-30 08:55:00,
2013-03-30 05:00:00,29.1,16.2,30.16,NNW,339,0.0,0.0,58,0.00,,---,0.00,VWS V14.01,2013-03-30 09:00:00,
2013-03-30 05:05:00,29.1,16.2,30.16,NNW,339,0.0,0.0,58,0.00,,---,0.00,VWS V14.01,2013-03-30 09:05:00,
2013-03-30 05:10:00,28.9,16.0,30.16,NNW,339,0.0,0.0,58,0.00,,---,0.00,VWS V14.01,2013-03-30 09:10:00,
2013-03-30 05:15:00,28.8,15.9,30.16,NNW,339,0.0,0.0,58,0.00,,---,0.00,VWS V14.01,2013-03-30 09:15:00,
2013-03-30 05:20:00,28.6,16.1,30.16,NNW,339,0.0,0.0,59,0.00,,---,0.00,VWS V14.01,2013-03-30 09:20:00,
2013-03-30 05:25:00,28.6,16.1,30.16,NNW,339,0.0,0.0,59,0.00,,---,0.00,VWS V14.01,2013-03-30 09:25:00,
2013-03-30 05:31:00,28.4,16.3,30.16,NNW,339,0.0,0.0,60,0.00,,---,0.00,VWS V14.01,2013-03-30 09:31:00,
2013-03-30 05:34:00,28.4,16.3,30.16,NNW,339,0.0,0.0,60,0.00,,---,0.00,VWS V14.01,2013-03-30 09:34:00,
2013-03-30 05:39:00,28.4,16.3,30.16,NNW,339,0.0,0.0,60,0.00,,---,0.00,VWS V14.01,2013-03-30 09:39:00,
2013-03-30 05:44:00,28.2,16.5,30.16,NNW,331,0.0,0.0,61,0.00,,---,0.00,VWS V14.01,2013-03-30 09:44:00,
2013-03-30 05:49:00,28.2,16.5,30.16,NNW,331,0.0,0.0,61,0.00,,---,0.00,VWS V14.01,2013-03-30 09:49:00,
2013-03-30 05:54:00,28.2,16.5,30.16,NNW,331,0.0,0.0,61,0.00,,---,0.00,VWS V14.01,2013-03-30 09:54:00,
2013-03-30 05:59:00,28.2,16.9,30.16,NNW,331,0.0,0.0,62,0.00,,---,0.00,VWS V14.01,2013-03-30 09:59:00,
2013-03-30 06:04:00,28.2,17.3,30.16,NNW,331,0.0,0.0,63,0.00,,---,0.00,VWS V14.01,2013-03-30 10:04:00,
2013-03-30 06:09:00,28.2,17.3,30.16,NNW,331,0.0,0.0,63,0.00,,---,0.00,VWS V14.01,2013-03-30 10:09:00,
2013-03-30 06:14:00,28.2,17.3,30.16,NNW,332,0.0,0.0,63,0.00,,---,0.00,VWS V14.01,2013-03-30 10:14:00,
2013-03-30 06:19:00,28.2,17.3,30.16,NNW,332,0.0,0.0,63,0.00,,---,0.00,VWS V14.01,2013-03-30 10:19:00,
2013-03-30 06:24:00,28.2,17.6,30.16,NNW,332,4.5,4.5,64,0.00,,---,0.00,VWS V14.01,2013-03-30 10:24:00,
2013-03-30 06:29:00,28.2,17.6,30.16,NNW,333,4.5,4.5,64,0.00,,---,0.00,VWS V14.01,2013-03-30 10:29:00,
2013-03-30 06:34:00,28.2,17.6,30.16,NNW,333,0.0,0.0,64,0.00,,---,0.00,VWS V14.01,2013-03-30 10:34:00,
2013-03-30 06:39:00,28.4,18.1,30.16,NNW,330,0.0,0.0,65,0.00,,---,0.00,VWS V14.01,2013-03-30 10:39:00,
2013-03-30 06:44:00,28.4,18.1,30.16,NNW,328,5.4,6.3,65,0.00,,---,0.00,VWS V14.01,2013-03-30 10:44:00,
2013-03-30 06:49:00,28.4,18.1,30.16,NW,321,5.4,5.4,65,0.00,,---,0.00,VWS V14.01,2013-03-30 10:49:00,
2013-03-30 06:54:00,28.4,18.1,30.16,NW,320,7.2,7.2,65,0.00,,---,0.00,VWS V14.01,2013-03-30 10:54:00,
2013-03-30 07:00:00,28.4,18.1,30.16,NW,320,4.5,5.4,65,0.00,,---,0.00,VWS V14.01,2013-03-30 11:00:00,
2013-03-30 07:05:00,28.4,18.1,30.16,NW,319,5.4,5.4,65,0.00,,---,0.00,VWS V14.01,2013-03-30 11:05:00,
2013-03-30 07:10:00,28.6,18.3,30.16,NW,319,4.5,4.5,65,0.00,,---,0.00,VWS V14.01,2013-03-30 11:10:00,
2013-03-30 07:15:00,28.8,18.5,30.16,NW,320,0.0,4.5,65,0.00,,---,0.00,VWS V14.01,2013-03-30 11:15:00,
2013-03-30 07:20:00,28.9,18.7,30.16,NW,320,0.0,0.0,65,0.00,,---,0.00,VWS V14.01,2013-03-30 11:20:00,
2013-03-30 07:25:00,29.1,18.8,30.16,NW,320,0.0,0.0,65,0.00,,---,0.00,VWS V14.01,2013-03-30 11:25:00,
2013-03-30 07:30:00,29.1,18.8,30.16,NW,320,0.0,0.0,65,0.00,,---,0.00,VWS V14.01,2013-03-30 11:30:00,
2013-03-30 07:35:00,29.3,18.6,30.16,NW,320,0.0,0.0,64,0.00,,---,0.00,VWS V14.01,2013-03-30 11:35:00,
2013-03-30 07:40:00,29.3,18.6,30.16,NW,319,0.0,0.0,64,0.00,,---,0.00,VWS V14.01,2013-03-30 11:40:00,
2013-03-30 07:45:00,29.3,18.6,30.16,NW,320,0.0,0.0,64,0.00,,---,0.00,VWS V14.01,2013-03-30 11:45:00,
2013-03-30 07:50:00,29.5,18.8,30.16,NW,319,0.0,0.0,64,0.00,,---,0.00,VWS V14.01,2013-03-30 11:50:00,
2013-03-30 07:55:00,29.5,18.8,30.19,NW,320,4.5,4.5,64,0.00,,---,0.00,VWS V14.01,2013-03-30 11:55:00,
2013-03-30 08:00:00,29.7,19.0,30.19,NW,320,0.0,0.0,64,0.00,,---,0.00,VWS V14.01,2013-03-30 12:00:00,
2013-03-30 08:05:00,29.8,19.2,30.19,NW,319,5.4,8.1,64,0.00,,---,0.00,VWS V14.01,2013-03-30 12:05:00,
2013-03-30 08:10:00,30.2,19.9,30.19,NW,319,4.5,8.1,65,0.00,,---,0.00,VWS V14.01,2013-03-30 12:10:00,
2013-03-30 08:15:00,30.7,20.0,30.19,NW,319,4.5,4.5,64,0.00,,---,0.00,VWS V14.01,2013-03-30 12:15:00,
2013-03-30 08:21:00,31.3,20.5,30.19,NW,318,0.0,0.0,64,0.00,,---,0.00,VWS V14.01,2013-03-30 12:21:00,
2013-03-30 08:26:00,32.0,21.2,30.19,NW,318,5.4,5.4,64,0.00,,---,0.00,VWS V14.01,2013-03-30 12:26:00,
2013-03-30 08:31:00,32.5,21.7,30.19,NW,318,0.0,0.0,64,0.00,,---,0.00,VWS V14.01,2013-03-30 12:31:00,
2013-03-30 08:36:00,33.1,21.9,30.19,NW,318,0.0,0.0,63,0.00,,---,0.00,VWS V14.01,2013-03-30 12:36:00,
2013-03-30 08:41:00,33.8,21.8,30.19,NW,319,6.3,6.3,61,0.00,,---,0.00,VWS V14.01,2013-03-30 12:41:00,
2013-03-30 08:46:00,34.5,22.1,30.19,NW,319,0.0,0.0,60,0.00,,---,0.00,VWS V14.01,2013-03-30 12:46:00,
2013-03-30 08:51:00,35.2,22.4,30.19,NW,319,4.5,7.2,59,0.00,,---,0.00,VWS V14.01,2013-03-30 12:51:00,
2013-03-30 08:56:00,35.8,22.5,30.19,NW,320,6.3,7.2,58,0.00,,---,0.00,VWS V14.01,2013-03-30 12:56:00,
2013-03-30 09:01:00,36.5,22.3,30.19,NW,320,0.0,0.0,56,0.00,,---,0.00,VWS V14.01,2013-03-30 13:01:00,
2013-03-30 09:06:00,37.0,22.4,30.19,NNW,328,6.3,8.1,55,0.00,,---,0.00,VWS V14.01,2013-03-30 13:06:00,
2013-03-30 09:11:00,37.8,21.7,30.16,NW,313,8.1,8.1,52,0.00,,---,0.00,VWS V14.01,2013-03-30 13:11:00,
2013-03-30 09:16:00,38.3,21.8,30.16,NW,315,0.0,5.4,51,0.00,,---,0.00,VWS V14.01,2013-03-30 13:16:00,
2013-03-30 09:21:00,38.8,22.3,30.16,NW,315,0.0,0.0,51,0.00,,---,0.00,VWS V14.01,2013-03-30 13:21:00,
2013-03-30 09:27:00,39.2,22.1,30.16,NW,315,0.0,0.0,50,0.00,,---,0.00,VWS V14.01,2013-03-30 13:27:00,
2013-03-30 09:32:00,39.6,22.5,30.16,NW,315,0.0,0.0,50,0.00,,---,0.00,VWS V14.01,2013-03-30 13:32:00,
2013-03-30 09:37:00,39.9,22.8,30.16,NW,315,0.0,0.0,50,0.00,,---,0.00,VWS V14.01,2013-03-30 13:37:00,
2013-03-30 09:42:00,40.8,23.1,30.16,WNW,294,0.0,5.4,49,0.00,,---,0.00,VWS V14.01,2013-03-30 13:42:00,
2013-03-30 09:47:00,41.7,24.0,30.16,WNW,294,0.0,0.0,49,0.00,,---,0.00,VWS V14.01,2013-03-30 13:47:00,
2013-03-30 09:52:00,42.8,24.5,30.16,SW,224,0.0,0.0,48,0.00,,---,0.00,VWS V14.01,2013-03-30 13:52:00,
2013-03-30 09:57:00,43.3,23.4,30.16,NW,313,8.1,9.8,45,0.00,,---,0.00,VWS V14.01,2013-03-30 13:57:00,
2013-03-30 10:02:00,43.7,22.7,30.16,West,280,0.0,0.0,43,0.00,,---,0.00,VWS V14.01,2013-03-30 14:02:00,
2013-03-30 10:07:00,44.1,22.5,30.16,NW,315,6.3,8.1,42,0.00,,---,0.00,VWS V14.01,2013-03-30 14:07:00,
2013-03-30 10:12:00,44.4,23.3,30.16,NW,315,0.0,0.0,43,0.00,,---,0.00,VWS V14.01,2013-03-30 14:12:00,
2013-03-30 10:17:00,45.1,23.4,30.16,NW,316,0.0,0.0,42,0.00,,---,0.00,VWS V14.01,2013-03-30 14:17:00,
2013-03-30 10:22:00,46.2,24.4,30.16,NW,316,0.0,0.0,42,0.00,,---,0.00,VWS V14.01,2013-03-30 14:22:00,
2013-03-30 10:27:00,46.9,24.5,30.16,SE,126,0.0,0.0,41,0.00,,---,0.00,VWS V14.01,2013-03-30 14:27:00,
2013-03-30 10:32:00,47.1,24.1,30.16,SSE,147,0.0,0.0,40,0.00,,---,0.00,VWS V14.01,2013-03-30 14:32:00,
2013-03-30 10:37:00,46.8,23.7,30.14,ESE,122,4.5,4.5,40,0.00,,---,0.00,VWS V14.01,2013-03-30 14:37:00,
2013-03-30 10:43:00,46.8,23.1,30.14,SSE,152,6.3,10.7,39,0.00,,---,0.00,VWS V14.01,2013-03-30 14:43:00,
2013-03-30 10:48:00,46.9,23.3,30.14,SW,226,6.3,7.2,39,0.00,,---,0.00,VWS V14.01,2013-03-30 14:48:00,
2013-03-30 10:53:00,47.1,23.5,30.16,SE,141,8.1,9.8,39,0.00,,---,0.00,VWS V14.01,2013-03-30 14:53:00,
2013-03-30 10:58:00,46.9,23.3,30.16,SSE,168,0.0,10.7,39,0.00,,---,0.00,VWS V14.01,2013-03-30 14:58:00,
2013-03-30 11:03:00,46.8,23.1,30.16,South,179,11.6,11.6,39,0.00,,---,0.00,VWS V14.01,2013-03-30 15:03:00,
2013-03-30 11:08:00,46.9,22.7,30.16,South,176,12.5,12.5,38,0.00,,---,0.00,VWS V14.01,2013-03-30 15:08:00,
2013-03-30 11:13:00,46.6,22.4,30.16,SE,141,0.0,4.5,38,0.00,,---,0.00,VWS V14.01,2013-03-30 15:13:00,
2013-03-30 11:18:00,46.8,22.5,30.16,SSW,197,0.0,0.0,38,0.00,,---,0.00,VWS V14.01,2013-03-30 15:18:00,
2013-03-30 11:23:00,47.1,22.8,30.14,WSW,249,7.2,10.7,38,0.00,,---,0.00,VWS V14.01,2013-03-30 15:23:00,
2013-03-30 11:28:00,47.7,23.3,30.14,WNW,287,7.2,7.2,38,0.00,,---,0.00,VWS V14.01,2013-03-30 15:28:00,
2013-03-30 11:33:00,48.0,23.6,30.14,NW,316,6.3,6.3,38,0.00,,---,0.00,VWS V14.01,2013-03-30 15:33:00,
2013-03-30 11:38:00,48.6,24.1,30.14,SW,235,10.7,10.7,38,0.00,,---,0.00,VWS V14.01,2013-03-30 15:38:00,
2013-03-30 11:43:00,48.9,24.5,30.14,WSW,245,9.8,9.8,38,0.00,,---,0.00,VWS V14.01,2013-03-30 15:43:00,
2013-03-30 11:48:00,49.3,24.8,30.14,SE,137,8.1,8.1,38,0.00,,---,0.00,VWS V14.01,2013-03-30 15:48:00,
2013-03-30 11:53:00,49.5,24.9,30.14,South,176,5.4,5.4,38,0.00,,---,0.00,VWS V14.01,2013-03-30 15:53:00,
2013-03-30 11:58:00,50.0,24.8,30.14,WSW,252,6.3,6.3,37,0.00,,---,0.00,VWS V14.01,2013-03-30 15:58:00,
2013-03-30 12:03:00,50.2,24.9,30.14,SSE,156,6.3,8.1,37,0.00,,---,0.00,VWS V14.01,2013-03-30 16:03:00,
2013-03-30 12:08:00,50.4,24.4,30.14,SSE,166,12.5,16.1,36,0.00,,---,0.00,VWS V14.01,2013-03-30 16:08:00,
2013-03-30 12:13:00,50.5,25.2,30.14,SSW,203,12.5,16.6,37,0.00,,---,0.00,VWS V14.01,2013-03-30 16:13:00,
2013-03-30 12:19:00,50.9,24.9,30.14,SSE,151,12.5,12.5,36,0.00,,---,0.00,VWS V14.01,2013-03-30 16:19:00,
2013-03-30 12:24:00,51.3,25.2,30.14,East,97,7.2,7.2,36,0.00,,---,0.00,VWS V14.01,2013-03-30 16:24:00,
2013-03-30 12:29:00,52.2,26.0,30.14,SSW,192,8.1,26.4,36,0.00,,---,0.00,VWS V14.01,2013-03-30 16:29:00,
2013-03-30 12:34:00,52.0,25.2,30.14,WSW,247,7.2,11.6,35,0.00,,---,0.00,VWS V14.01,2013-03-30 16:34:00,
2013-03-30 12:39:00,51.6,25.6,30.11,SSE,161,11.6,11.6,36,0.00,,---,0.00,VWS V14.01,2013-03-30 16:39:00,
2013-03-30 12:44:00,52.2,26.0,30.11,East,101,8.9,9.8,36,0.00,,---,0.00,VWS V14.01,2013-03-30 16:44:00,
2013-03-30 12:49:00,52.5,26.4,30.11,WSW,244,7.2,7.2,36,0.00,,---,0.00,VWS V14.01,2013-03-30 16:49:00,
2013-03-30 12:54:00,52.9,26.0,30.11,WSW,244,10.7,10.7,35,0.00,,---,0.00,VWS V14.01,2013-03-30 16:54:00,
2013-03-30 12:59:00,53.2,25.6,30.11,WSW,257,8.1,8.1,34,0.00,,---,0.00,VWS V14.01,2013-03-30 16:59:00,
2013-03-30 13:04:00,53.6,25.2,30.11,SW,233,7.2,7.2,33,0.00,,---,0.00,VWS V14.01,2013-03-30 17:04:00,
2013-03-30 13:09:00,53.6,25.9,30.11,SSW,194,9.8,9.8,34,0.00,,---,0.00,VWS V14.01,2013-03-30 17:09:00,
2013-03-30 13:14:00,54.0,26.2,30.11,SSW,205,15.2,20.1,34,0.00,,---,0.00,VWS V14.01,2013-03-30 17:14:00,
2013-03-30 13:20:00,54.0,25.5,30.11,SSE,167,12.5,20.1,33,0.00,,---,0.00,VWS V14.01,2013-03-30 17:20:00,
2013-03-30 13:25:00,53.8,24.6,30.11,South,169,7.2,10.7,32,0.00,,---,0.00,VWS V14.01,2013-03-30 17:25:00,
2013-03-30 13:30:00,53.4,24.3,30.11,SE,129,11.6,12.5,32,0.00,,---,0.00,VWS V14.01,2013-03-30 17:30:00,
2013-03-30 13:35:00,53.6,23.7,30.11,SSE,163,6.3,11.6,31,0.00,,---,0.00,VWS V14.01,2013-03-30 17:35:00,
2013-03-30 13:40:00,54.0,24.0,30.11,South,185,17.4,17.4,31,0.00,,---,0.00,VWS V14.01,2013-03-30 17:40:00,
2013-03-30 13:45:00,54.5,24.5,30.11,SSE,164,15.2,16.1,31,0.00,,---,0.00,VWS V14.01,2013-03-30 17:45:00,
2013-03-30 13:50:00,54.5,23.7,30.11,SSE,166,11.6,21.9,30,0.00,,---,0.00,VWS V14.01,2013-03-30 17:50:00,
2013-03-30 13:55:00,54.3,23.6,30.08,SE,146,8.1,8.1,30,0.00,,---,0.00,VWS V14.01,2013-03-30 17:55:00,
2013-03-30 14:00:00,54.9,24.8,30.08,SW,231,8.1,21.9,31,0.00,,---,0.00,VWS V14.01,2013-03-30 18:00:00,
2013-03-30 14:05:00,55.2,24.4,30.08,SSE,157,15.2,15.2,30,0.00,,---,0.00,VWS V14.01,2013-03-30 18:05:00,
2013-03-30 14:10:00,55.0,24.2,30.08,SW,217,8.1,8.1,30,0.00,,---,0.00,VWS V14.01,2013-03-30 18:10:00,
2013-03-30 14:15:00,54.5,23.7,30.08,SSE,149,14.3,14.3,30,0.00,,---,0.00,VWS V14.01,2013-03-30 18:15:00,
2013-03-30 14:20:00,54.5,22.9,30.08,South,174,9.8,9.8,29,0.00,,---,0.00,VWS V14.01,2013-03-30 18:20:00,
2013-03-30 14:25:00,54.0,22.5,30.08,SSW,197,16.1,16.1,29,0.00,,---,0.00,VWS V14.01,2013-03-30 18:25:00,
2013-03-30 14:30:00,54.5,22.1,30.08,SW,218,16.1,16.1,28,0.00,,---,0.00,VWS V14.01,2013-03-30 18:30:00,
2013-03-30 14:35:00,54.7,23.1,30.08,SE,138,7.2,10.7,29,0.00,,---,0.00,VWS V14.01,2013-03-30 18:35:00,
2013-03-30 14:40:00,54.5,22.1,30.08,SSW,205,7.2,12.5,28,0.00,,---,0.00,VWS V14.01,2013-03-30 18:40:00,
2013-03-30 14:45:00,54.5,22.1,30.08,SW,222,17.4,17.4,28,0.00,,---,0.00,VWS V14.01,2013-03-30 18:45:00,
2013-03-30 14:50:00,54.7,22.2,30.08,West,277,9.8,16.1,28,0.00,,---,0.00,VWS V14.01,2013-03-30 18:50:00,
2013-03-30 14:55:00,55.2,22.7,30.08,SW,224,9.8,9.8,28,0.00,,---,0.00,VWS V14.01,2013-03-30 18:55:00,
2013-03-30 15:01:00,56.1,23.5,30.08,SSE,162,8.9,10.7,28,0.00,,---,0.00,VWS V14.01,2013-03-30 19:01:00,
2013-03-30 15:06:00,56.3,23.6,30.08,WSW,243,8.1,10.7,28,0.00,,---,0.00,VWS V14.01,2013-03-30 19:06:00,
2013-03-30 15:11:00,56.3,22.8,30.05,SSE,162,6.3,16.6,27,0.00,,---,0.00,VWS V14.01,2013-03-30 19:11:00,
2013-03-30 15:16:00,55.9,23.3,30.05,SSE,155,15.2,15.2,28,0.00,,---,0.00,VWS V14.01,2013-03-30 19:16:00,
2013-03-30 15:22:00,56.1,22.6,30.05,SSW,212,11.6,11.6,27,0.00,,---,0.00,VWS V14.01,2013-03-30 19:22:00,
2013-03-30 15:27:00,56.3,22.8,30.05,WNW,286,11.6,16.6,27,0.00,,---,0.00,VWS V14.01,2013-03-30 19:27:00,
2013-03-30 15:32:00,56.5,22.9,30.05,ESE,114,6.3,8.1,27,0.00,,---,0.00,VWS V14.01,2013-03-30 19:32:00,
2013-03-30 15:37:00,56.8,23.2,30.05,South,180,23.7,23.7,27,0.00,,---,0.00,VWS V14.01,2013-03-30 19:37:00,
2013-03-30 15:42:00,56.3,22.8,30.05,SSE,155,8.1,12.5,27,0.00,,---,0.00,VWS V14.01,2013-03-30 19:42:00,
2013-03-30 15:47:00,56.1,22.6,30.05,SSW,213,12.5,18.3,27,0.00,,---,0.00,VWS V14.01,2013-03-30 19:47:00,
2013-03-30 15:52:00,55.8,22.3,30.05,WSW,253,10.7,12.5,27,0.00,,---,0.00,VWS V14.01,2013-03-30 19:52:00,
2013-03-30 15:57:00,55.6,22.1,30.05,SSW,204,9.8,12.5,27,0.00,,---,0.00,VWS V14.01,2013-03-30 19:57:00,
2013-03-30 16:02:00,55.9,22.5,30.05,WSW,255,12.5,12.5,27,0.00,,---,0.00,VWS V14.01,2013-03-30 20:02:00,
2013-03-30 16:07:00,56.1,22.6,30.05,SW,225,20.1,20.1,27,0.00,,---,0.00,VWS V14.01,2013-03-30 20:07:00,
2013-03-30 16:12:00,55.9,22.5,30.05,SW,221,12.5,12.5,27,0.00,,---,0.00,VWS V14.01,2013-03-30 20:12:00,
2013-03-30 16:17:00,55.6,22.1,30.05,SSE,156,5.4,11.6,27,0.00,,---,0.00,VWS V14.01,2013-03-30 20:17:00,
2013-03-30 16:22:00,55.6,22.1,30.02,SSE,159,4.5,4.5,27,0.00,,---,0.00,VWS V14.01,2013-03-30 20:22:00,
2013-03-30 16:27:00,55.0,21.7,30.02,WSW,248,5.4,20.1,27,0.00,,---,0.00,VWS V14.01,2013-03-30 20:27:00,
2013-03-30 16:32:00,55.2,21.8,30.02,West,261,15.2,15.2,27,0.00,,---,0.00,VWS V14.01,2013-03-30 20:32:00,
2013-03-30 16:37:00,55.2,21.8,30.02,South,169,5.4,7.2,27,0.00,,---,0.00,VWS V14.01,2013-03-30 20:37:00,
2013-03-30 16:42:00,55.2,21.8,30.02,South,189,16.1,16.1,27,0.00,,---,0.00,VWS V14.01,2013-03-30 20:42:00,
2013-03-30 16:47:00,55.0,21.7,30.02,West,281,10.7,10.7,27,0.00,,---,0.00,VWS V14.01,2013-03-30 20:47:00,
2013-03-30 16:52:00,54.9,21.5,30.02,SSE,161,12.5,12.5,27,0.00,,---,0.00,VWS V14.01,2013-03-30 20:52:00,
2013-03-30 16:57:00,54.9,21.5,30.02,West,267,11.6,11.6,27,0.00,,---,0.00,VWS V14.01,2013-03-30 20:57:00,
2013-03-30 17:03:00,54.9,21.5,30.02,SW,235,9.8,12.5,27,0.00,,---,0.00,VWS V14.01,2013-03-30 21:03:00,
2013-03-30 17:08:00,54.9,21.5,30.02,SW,216,15.2,21.0,27,0.00,,---,0.00,VWS V14.01,2013-03-30 21:08:00,
2013-03-30 17:13:00,55.2,22.7,30.02,SSW,212,9.8,12.5,28,0.00,,---,0.00,VWS V14.01,2013-03-30 21:13:00,
2013-03-30 17:18:00,54.9,22.4,30.02,SSE,165,8.1,8.1,28,0.00,,---,0.00,VWS V14.01,2013-03-30 21:18:00,
2013-03-30 17:23:00,54.5,22.1,30.02,South,170,9.8,15.2,28,0.00,,---,0.00,VWS V14.01,2013-03-30 21:23:00,
2013-03-30 17:28:00,54.7,22.2,30.02,SE,138,11.6,11.6,28,0.00,,---,0.00,VWS V14.01,2013-03-30 21:28:00,
2013-03-30 17:33:00,54.5,22.1,30.02,SSW,194,10.7,11.6,28,0.00,,---,0.00,VWS V14.01,2013-03-30 21:33:00,
2013-03-30 17:38:00,54.5,22.1,29.99,South,171,4.5,8.1,28,0.00,,---,0.00,VWS V14.01,2013-03-30 21:38:00,
2013-03-30 17:43:00,54.5,22.1,29.99,SSW,198,15.2,15.2,28,0.00,,---,0.00,VWS V14.01,2013-03-30 21:43:00,
2013-03-30 17:48:00,54.3,21.9,29.99,SW,221,11.6,11.6,28,0.00,,---,0.00,VWS V14.01,2013-03-30 21:48:00,
2013-03-30 17:53:00,54.3,21.9,29.99,SE,146,8.1,8.1,28,0.00,,---,0.00,VWS V14.01,2013-03-30 21:53:00,
2013-03-30 17:58:00,54.3,21.9,29.99,SW,222,7.2,8.1,28,0.00,,---,0.00,VWS V14.01,2013-03-30 21:58:00,
2013-03-30 18:03:00,54.0,22.5,29.99,South,180,7.2,10.7,29,0.00,,---,0.00,VWS V14.01,2013-03-30 22:03:00,
2013-03-30 18:08:00,53.8,22.3,29.99,SSW,200,11.6,11.6,29,0.00,,---,0.00,VWS V14.01,2013-03-30 22:08:00,
2013-03-30 18:14:00,53.8,22.3,29.99,SSW,198,7.2,10.7,29,0.00,,---,0.00,VWS V14.01,2013-03-30 22:14:00,
2013-03-30 18:19:00,53.6,22.1,29.99,SSW,212,9.8,9.8,29,0.00,,---,0.00,VWS V14.01,2013-03-30 22:19:00,
2013-03-30 18:24:00,53.2,21.8,29.99,SSW,206,8.1,8.9,29,0.00,,---,0.00,VWS V14.01,2013-03-30 22:24:00,
2013-03-30 18:29:00,53.1,21.7,29.99,SW,231,7.2,11.6,29,0.00,,---,0.00,VWS V14.01,2013-03-30 22:29:00,
2013-03-30 18:34:00,53.1,21.7,29.99,South,180,9.8,10.7,29,0.00,,---,0.00,VWS V14.01,2013-03-30 22:34:00,
2013-03-30 18:39:00,53.1,21.7,29.99,SSW,203,8.1,9.8,29,0.00,,---,0.00,VWS V14.01,2013-03-30 22:39:00,
2013-03-30 18:44:00,52.9,22.3,29.99,South,172,8.1,11.6,30,0.00,,---,0.00,VWS V14.01,2013-03-30 22:44:00,
2013-03-30 18:49:00,52.7,22.2,29.99,SSW,197,10.7,16.1,30,0.00,,---,0.00,VWS V14.01,2013-03-30 22:49:00,
2013-03-30 18:54:00,52.3,21.8,29.99,South,179,11.6,11.6,30,0.00,,---,0.00,VWS V14.01,2013-03-30 22:54:00,
2013-03-30 18:59:00,52.2,21.7,29.99,South,189,5.4,7.2,30,0.00,,---,0.00,VWS V14.01,2013-03-30 22:59:00,
2013-03-30 19:04:00,52.2,21.7,29.99,SSW,193,6.3,6.3,30,0.00,,---,0.00,VWS V14.01,2013-03-30 23:04:00,
2013-03-30 19:09:00,52.0,21.5,29.99,South,191,10.7,10.7,30,0.00,,---,0.00,VWS V14.01,2013-03-30 23:09:00,
2013-03-30 19:14:00,51.8,22.1,29.99,SSE,166,8.1,8.1,31,0.00,,---,0.00,VWS V14.01,2013-03-30 23:14:00,
2013-03-30 19:19:00,51.8,22.1,29.99,SSW,194,0.0,10.7,31,0.00,,---,0.00,VWS V14.01,2013-03-30 23:19:00,
2013-03-30 19:24:00,51.6,22.7,29.99,SSW,211,4.5,4.5,32,0.00,,---,0.00,VWS V14.01,2013-03-30 23:24:00,
2013-03-30 19:29:00,51.4,22.6,29.99,South,171,11.6,11.6,32,0.00,,---,0.00,VWS V14.01,2013-03-30 23:29:00,
2013-03-30 19:34:00,51.3,22.4,29.99,SSW,204,6.3,7.2,32,0.00,,---,0.00,VWS V14.01,2013-03-30 23:34:00,
2013-03-30 19:39:00,51.3,22.4,29.99,SSW,192,5.4,8.1,32,0.00,,---,0.00,VWS V14.01,2013-03-30 23:39:00,
2013-03-30 19:44:00,50.9,22.8,29.99,South,190,7.2,10.7,33,0.00,,---,0.00,VWS V14.01,2013-03-30 23:44:00,
2013-03-30 19:49:00,50.7,22.7,29.99,SSW,206,8.1,10.7,33,0.00,,---,0.00,VWS V14.01,2013-03-30 23:49:00,
2013-03-30 19:54:00,50.5,22.5,29.99,South,189,7.2,12.5,33,0.00,,---,0.00,VWS V14.01,2013-03-30 23:54:00,
2013-03-30 20:00:00,50.4,22.4,29.99,SSW,194,7.2,7.2,33,0.00,,---,0.00,VWS V14.01,2013-03-31 00:00:00,
2013-03-30 20:05:00,50.2,22.2,29.99,SSE,168,10.7,10.7,33,0.00,,---,0.00,VWS V14.01,2013-03-31 00:05:00,
2013-03-30 20:10:00,50.0,22.8,29.99,South,182,11.6,12.5,34,0.00,,---,0.00,VWS V14.01,2013-03-31 00:10:00,
2013-03-30 20:15:00,49.6,22.4,29.99,SW,225,7.2,7.2,34,0.00,,---,0.00,VWS V14.01,2013-03-31 00:15:00,
2013-03-30 20:20:00,49.6,22.4,29.99,SSW,196,0.0,9.8,34,0.00,,---,0.00,VWS V14.01,2013-03-31 00:20:00,
2013-03-30 20:25:00,49.5,23.0,29.96,South,187,6.3,6.3,35,0.00,,---,0.00,VWS V14.01,2013-03-31 00:25:00,
2013-03-30 20:30:00,49.1,22.6,29.96,SSE,165,7.2,7.2,35,0.00,,---,0.00,VWS V14.01,2013-03-31 00:30:00,
2013-03-30 20:35:00,48.9,22.5,29.96,SW,226,7.2,7.2,35,0.00,,---,0.00,VWS V14.01,2013-03-31 00:35:00,
2013-03-30 20:40:00,48.9,23.2,29.96,SSE,159,5.4,5.4,36,0.00,,---,0.00,VWS V14.01,2013-03-31 00:40:00,
2013-03-30 20:45:00,48.7,23.0,29.96,SSE,161,0.0,7.2,36,0.00,,---,0.00,VWS V14.01,2013-03-31 00:45:00,
2013-03-30 20:50:00,48.4,22.7,29.96,South,175,0.0,9.8,36,0.00,,---,0.00,VWS V14.01,2013-03-31 00:50:00,
2013-03-30 20:55:00,48.0,23.0,29.96,SSW,192,6.3,6.3,37,0.00,,---,0.00,VWS V14.01,2013-03-31 00:55:00,
2013-03-30 21:00:00,47.7,22.7,29.96,South,180,8.1,8.1,37,0.00,,---,0.00,VWS V14.01,2013-03-31 01:00:00,
2013-03-30 21:06:00,47.5,22.5,29.96,South,172,4.5,5.4,37,0.00,,---,0.00,VWS V14.01,2013-03-31 01:06:00,
2013-03-30 21:11:00,47.3,22.4,29.96,SSE,168,0.0,6.3,37,0.00,,---,0.00,VWS V14.01,2013-03-31 01:11:00,
2013-03-30 21:16:00,47.1,22.2,29.96,South,188,8.9,8.9,37,0.00,,---,0.00,VWS V14.01,2013-03-31 01:16:00,
2013-03-30 21:21:00,46.8,21.9,29.96,South,177,6.3,6.3,37,0.00,,---,0.00,VWS V14.01,2013-03-31 01:21:00,
2013-03-30 21:26:00,46.6,21.7,29.96,SSE,148,0.0,0.0,37,0.00,,---,0.00,VWS V14.01,2013-03-31 01:26:00,
2013-03-30 21:31:00,46.0,21.9,29.96,SSE,150,0.0,0.0,38,0.00,,---,0.00,VWS V14.01,2013-03-31 01:31:00,
2013-03-30 21:37:00,45.7,21.5,29.96,SSE,162,0.0,0.0,38,0.00,,---,0.00,VWS V14.01,2013-03-31 01:37:00,
2013-03-30 21:42:00,45.3,21.2,29.96,SSE,152,0.0,0.0,38,0.00,,---,0.00,VWS V14.01,2013-03-31 01:42:00,
2013-03-30 21:47:00,44.8,20.7,29.96,SSE,152,0.0,0.0,38,0.00,,---,0.00,VWS V14.01,2013-03-31 01:47:00,
2013-03-30 21:52:00,44.2,20.9,29.96,SE,145,0.0,0.0,39,0.00,,---,0.00,VWS V14.01,2013-03-31 01:52:00,
2013-03-30 21:57:00,43.9,20.5,29.96,SSE,155,0.0,0.0,39,0.00,,---,0.00,VWS V14.01,2013-03-31 01:57:00,
2013-03-30 22:02:00,43.5,20.2,29.96,South,174,0.0,0.0,39,0.00,,---,0.00,VWS V14.01,2013-03-31 02:02:00,
2013-03-30 22:07:00,43.3,20.1,29.96,SSE,168,0.0,0.0,39,0.00,,---,0.00,VWS V14.01,2013-03-31 02:07:00,
2013-03-30 22:12:00,43.0,19.7,29.96,SSE,168,0.0,0.0,39,0.00,,---,0.00,VWS V14.01,2013-03-31 02:12:00,
2013-03-30 22:17:00,42.8,20.2,29.96,SE,137,0.0,0.0,40,0.00,,---,0.00,VWS V14.01,2013-03-31 02:17:00,
2013-03-30 22:22:00,42.6,20.6,29.96,SE,137,0.0,0.0,41,0.00,,---,0.00,VWS V14.01,2013-03-31 02:22:00,
2013-03-30 22:28:00,42.6,20.6,29.96,South,170,0.0,0.0,41,0.00,,---,0.00,VWS V14.01,2013-03-31 02:28:00,
2013-03-30 22:33:00,42.8,20.8,29.96,SSE,162,0.0,0.0,41,0.00,,---,0.00,VWS V14.01,2013-03-31 02:33:00,
2013-03-30 22:38:00,42.8,20.8,29.96,South,180,0.0,0.0,41,0.00,,---,0.00,VWS V14.01,2013-03-31 02:38:00,
2013-03-30 22:43:00,42.8,21.3,29.96,South,187,0.0,0.0,42,0.00,,---,0.00,VWS V14.01,2013-03-31 02:43:00,
2013-03-30 22:48:00,42.8,21.3,29.96,SSE,147,0.0,6.3,42,0.00,,---,0.00,VWS V14.01,2013-03-31 02:48:00,
2013-03-30 22:53:00,42.8,21.3,29.93,SSE,147,0.0,0.0,42,0.00,,---,0.00,VWS V14.01,2013-03-31 02:53:00,
2013-03-30 22:58:00,42.6,21.7,29.93,SSE,147,0.0,0.0,43,0.00,,---,0.00,VWS V14.01,2013-03-31 02:58:00,
2013-03-30 23:03:00,42.4,21.5,29.93,SSE,161,0.0,5.4,43,0.00,,---,0.00,VWS V14.01,2013-03-31 03:03:00,
2013-03-30 23:08:00,42.4,21.5,29.93,South,177,0.0,0.0,43,0.00,,---,0.00,VWS V14.01,2013-03-31 03:08:00,
2013-03-30 23:13:00,42.3,21.4,29.93,South,179,0.0,0.0,43,0.00,,---,0.00,VWS V14.01,2013-03-31 03:13:00,
2013-03-30 23:18:00,42.3,21.4,29.93,SE,146,0.0,0.0,43,0.00,,---,0.00,VWS V14.01,2013-03-31 03:18:00,
2013-03-30 23:23:00,42.1,21.8,29.93,SE,146,0.0,0.0,44,0.00,,---,0.00,VWS V14.01,2013-03-31 03:23:00,
2013-03-30 23:28:00,41.7,21.4,29.93,SE,146,0.0,0.0,44,0.00,,---,0.00,VWS V14.01,2013-03-31 03:28:00,
2013-03-30 23:33:00,41.5,21.3,29.93,SE,146,0.0,0.0,44,0.00,,---,0.00,VWS V14.01,2013-03-31 03:33:00,
2013-03-30 23:38:00,41.2,20.9,29.93,SSE,147,0.0,0.0,44,0.00,,---,0.00,VWS V14.01,2013-03-31 03:38:00,
2013-03-30 23:44:00,40.8,20.6,29.93,SSE,147,0.0,0.0,44,0.00,,---,0.00,VWS V14.01,2013-03-31 03:44:00,
2013-03-30 23:49:00,40.5,20.8,29.93,SSE,147,0.0,0.0,45,0.00,,---,0.00,VWS V14.01,2013-03-31 03:49:00,
2013-03-30 23:54:00,40.3,20.6,29.93,SSE,147,0.0,0.0,45,0.00,,---,0.00,VWS V14.01,2013-03-31 03:54:00,
2013-03-30 23:59:00,39.9,20.3,29.93,SSE,147,0.0,0.0,45,0.00,,---,0.00,VWS V14.01,2013-03-31 03:59:00,